Albany, NY

11:26 PM EST on November 16, 2019 (GMT -0500)
Albany International

Weather History for KALB - September, 2019

Change the Weather History Date:

Sunday, September 29, 2019

  Actual Average Record
Temperature  
Mean Temperature 60 °F 56 °F  
Max Temperature 69 °F 67 °F 86 °F (1921)
Min Temperature 51 °F 46 °F 29 °F (2000)
Degree Days  
Heating Degree Days 5 9  
Month to date heating degree days 69 133  
Since 1 July heating degree days 71 156  
Cooling Degree Days 0 1  
Month to date cooling degree days 44 53  
Year to date cooling degree days 767 596  
Growing Degree Days 8 (Base 50)    
Moisture  
Dew Point 48 °F    
Average Humidity 63    
Maximum Humidity 87    
Minimum Humidity 39    
Precipitation  
Precipitation 0.00 in 0.12 in 1.83 in (2006)
Month to date precipitation 2.22 3.18  
Year to date precipitation 31.20 29.33  
Sea Level Pressure  
Sea Level Pressure 30.30 in    
Wind  
Wind Speed 8 mph (North)    
Max Wind Speed 18 mph    
Max Gust Speed 24 mph    
Visibility 10 miles    
Events      
T = Trace of Precipitation, MM = Missing Value Source: NWS Daily Summary

Daily Weather History Graph

Daily Weather History Graph

Search for Another Location

Airport or City:

Astronomy

Sep. 29, 2019 Rise Set
Actual Time 6:49 AM EDT 6:40 PM EDT
Civil Twilight 6:21 AM EDT 7:08 PM EDT
Nautical Twilight 5:48 AM EDT 7:41 PM EDT
Astronomical Twilight 5:15 AM EDT 8:14 PM EDT
Moon 7:37 AM EDT (9/29) 7:38 PM EDT (9/29)
Length of Visible Light 12h 46m
Length of Day
11h 50m
New Moon, 1% of the Moon is Illuminated
Sep 29
New Moon
Oct 5
First Quarter
Oct 13
Full
Oct 21
Last Quarter
Oct 27
New

Hourly Weather History & Observations

Time (EDT) Temp. Dew Point Humidity Pressure Visibility Wind Dir Wind Speed Gust Speed Precip Events Conditions
1:51 AM 68.0 °F 64.0 °F 87% 30.13 in 10.0 mi Calm Calm - N/A   Overcast
2:51 AM 69.1 °F 63.0 °F 81% 30.13 in 10.0 mi NW 9.2 mph - N/A   Overcast
3:51 AM 68.0 °F 62.1 °F 81% 30.16 in 10.0 mi NNW 8.1 mph - N/A   Overcast
3:56 AM 68.0 °F 62.1 °F 81% 30.16 in 10.0 mi NNW 8.1 mph - N/A   Overcast
4:51 AM 66.9 °F 57.9 °F 73% 30.18 in 10.0 mi NNE 9.2 mph - N/A   Overcast
5:29 AM 66.0 °F 57.9 °F 75% 30.21 in 10.0 mi NNE 4.6 mph - N/A   Overcast
5:51 AM 64.9 °F 57.0 °F 75% 30.22 in 10.0 mi North 6.9 mph - N/A   Mostly Cloudy
6:51 AM 63.0 °F 54.0 °F 72% 30.25 in 10.0 mi NNW 6.9 mph - N/A   Scattered Clouds
7:51 AM 63.0 °F 54.0 °F 72% 30.28 in 10.0 mi North 11.5 mph - N/A   Scattered Clouds
9:51 AM 62.1 °F 50.0 °F 65% 30.34 in 10.0 mi NE 12.7 mph - N/A   Mostly Cloudy
10:51 AM 60.1 °F 48.9 °F 67% 30.36 in 10.0 mi NNE 13.8 mph 20.7 mph N/A   Mostly Cloudy
11:20 AM 62.1 °F 48.9 °F 62% 30.37 in 10.0 mi North 11.5 mph 18.4 mph N/A   Mostly Cloudy
11:51 AM 62.1 °F 48.0 °F 60% 30.37 in 10.0 mi NE 12.7 mph 19.6 mph N/A   Mostly Cloudy
12:51 PM 64.0 °F 46.9 °F 54% 30.37 in 10.0 mi NNE 9.2 mph - N/A   Scattered Clouds
1:51 PM 64.0 °F 45.0 °F 50% 30.35 in 10.0 mi ENE 10.4 mph - N/A   Mostly Cloudy
2:51 PM 64.9 °F 42.1 °F 43% 30.35 in 10.0 mi NE 10.4 mph - N/A   Mostly Cloudy
3:51 PM 64.9 °F 39.0 °F 39% 30.34 in 10.0 mi NE 11.5 mph - N/A   Mostly Cloudy
4:51 PM 62.1 °F 37.9 °F 41% 30.33 in 10.0 mi NNE 6.9 mph - N/A   Mostly Cloudy
5:51 PM 61.0 °F 39.9 °F 46% 30.32 in 10.0 mi NNW 4.6 mph - N/A   Mostly Cloudy
6:51 PM 57.9 °F 39.9 °F 51% 30.35 in 10.0 mi NNW 8.1 mph - N/A   Mostly Cloudy
7:51 PM 55.9 °F 37.9 °F 51% 30.36 in 10.0 mi North 3.5 mph - N/A   Mostly Cloudy
8:51 PM 53.1 °F 37.9 °F 57% 30.36 in 10.0 mi North 3.5 mph - N/A   Mostly Cloudy
9:51 PM 51.1 °F 37.9 °F 61% 30.38 in 10.0 mi NNW 6.9 mph - N/A   Mostly Cloudy
10:51 PM 52.0 °F 39.0 °F 61% 30.38 in 10.0 mi North 5.8 mph - N/A   Mostly Cloudy
11:51 PM 52.0 °F 39.9 °F 63% 30.38 in 10.0 mi North 5.8 mph - N/A   Overcast